Time,TemperatureF,DewpointF,PressureIn,WindDirection,WindDirectionDegrees,WindSpeedMPH,WindSpeedGustMPH,Humidity,HourlyPrecipIn,Conditions,Clouds,dailyrainin,SoftwareType,DateUTC
2013-06-07 00:05:00,54.3,52.3,30.05,NNE,32,0.0,1.0,93,0.00,,,0.02,Wunderground v.1.15,2013-06-07 05:05:00,
2013-06-07 00:10:00,54.3,52.3,30.05,NNE,32,0.0,1.0,93,0.00,,,0.02,Wunderground v.1.15,2013-06-07 05:10:00,
2013-06-07 00:16:00,54.3,52.3,30.04,NNE,32,0.0,0.0,93,0.00,,,0.02,Wunderground v.1.15,2013-06-07 05:16:00,
2013-06-07 00:22:00,54.3,52.3,30.04,NNE,32,0.0,0.0,93,0.00,,,0.02,Wunderground v.1.15,2013-06-07 05:22:00,
2013-06-07 00:28:00,54.2,52.2,30.04,NNE,32,2.0,2.0,93,0.00,,,0.02,Wunderground v.1.15,2013-06-07 05:28:00,
2013-06-07 00:33:00,54.2,52.2,30.04,NNE,32,0.0,0.0,93,0.00,,,0.02,Wunderground v.1.15,2013-06-07 05:33:00,
2013-06-07 00:39:00,54.1,52.1,30.04,NNE,32,0.0,0.0,93,0.00,,,0.02,Wunderground v.1.15,2013-06-07 05:39:00,
2013-06-07 00:45:00,54.1,52.1,30.04,NNE,32,0.0,0.0,93,0.00,,,0.02,Wunderground v.1.15,2013-06-07 05:45:00,
2013-06-07 00:50:00,54.1,52.1,30.04,NNE,32,0.0,0.0,93,0.00,,,0.02,Wunderground v.1.15,2013-06-07 05:50:00,
2013-06-07 00:56:00,54.0,52.0,30.04,NNE,32,0.0,0.0,93,0.00,,,0.02,Wunderground v.1.15,2013-06-07 05:56:00,
2013-06-07 01:01:00,53.9,51.9,30.04,NNE,32,0.0,0.0,93,0.00,,,0.02,Wunderground v.1.15,2013-06-07 06:01:00,
2013-06-07 01:07:00,53.9,51.9,30.04,NNE,32,0.0,0.0,93,0.00,,,0.02,Wunderground v.1.15,2013-06-07 06:07:00,
2013-06-07 01:13:00,53.8,51.8,30.04,NNE,32,0.0,0.0,93,0.00,,,0.02,Wunderground v.1.15,2013-06-07 06:13:00,
2013-06-07 01:19:00,53.7,51.7,30.04,NNE,32,0.0,0.0,93,0.00,,,0.02,Wunderground v.1.15,2013-06-07 06:19:00,
2013-06-07 01:25:00,53.6,51.9,30.04,NNE,32,0.0,0.0,94,0.00,,,0.02,Wunderground v.1.15,2013-06-07 06:25:00,
2013-06-07 01:30:00,53.4,51.7,30.03,NNE,32,0.0,0.0,94,0.00,,,0.02,Wunderground v.1.15,2013-06-07 06:30:00,
2013-06-07 01:36:00,53.3,51.6,30.03,NNE,32,0.0,0.0,94,0.00,,,0.02,Wunderground v.1.15,2013-06-07 06:36:00,
2013-06-07 01:41:00,53.1,51.4,30.04,NNE,32,0.0,0.0,94,0.00,,,0.02,Wunderground v.1.15,2013-06-07 06:41:00,
2013-06-07 01:47:00,52.8,51.1,30.04,NNE,32,0.0,0.0,94,0.00,,,0.02,Wunderground v.1.15,2013-06-07 06:47:00,
2013-06-07 01:52:00,52.8,51.1,30.03,NNE,32,0.0,0.0,94,0.00,,,0.02,Wunderground v.1.15,2013-06-07 06:52:00,
2013-06-07 01:58:00,52.6,51.2,30.03,NNE,32,0.0,0.0,95,0.00,,,0.02,Wunderground v.1.15,2013-06-07 06:58:00,
2013-06-07 02:03:00,52.6,51.2,30.03,NNE,32,0.0,0.0,95,0.00,,,0.02,Wunderground v.1.15,2013-06-07 07:03:00,
2013-06-07 02:08:00,52.4,51.0,30.03,NNE,32,0.0,0.0,95,0.00,,,0.02,Wunderground v.1.15,2013-06-07 07:08:00,
2013-06-07 02:13:00,52.4,51.0,30.03,NNE,32,0.0,0.0,95,0.00,,,0.02,Wunderground v.1.15,2013-06-07 07:13:00,
2013-06-07 02:18:00,52.3,51.2,30.03,NNE,32,0.0,0.0,96,0.00,,,0.02,Wunderground v.1.15,2013-06-07 07:18:00,
2013-06-07 02:23:00,52.2,51.1,30.03,NNE,32,0.0,0.0,96,0.00,,,0.02,Wunderground v.1.15,2013-06-07 07:23:00,
2013-06-07 02:28:00,52.1,51.0,30.03,NNE,32,0.0,0.0,96,0.00,,,0.02,Wunderground v.1.15,2013-06-07 07:28:00,
2013-06-07 02:33:00,52.1,51.0,30.03,NNE,32,0.0,0.0,96,0.00,,,0.00,Wunderground v.1.15,2013-06-07 07:33:00,
2013-06-07 02:39:00,52.0,50.9,30.03,NNE,32,0.0,0.0,96,0.00,,,0.00,Wunderground v.1.15,2013-06-07 07:39:00,
2013-06-07 02:44:00,51.9,50.8,30.03,NNE,32,0.0,0.0,96,0.00,,,0.00,Wunderground v.1.15,2013-06-07 07:44:00,
2013-06-07 02:49:00,51.9,50.8,30.03,NNE,32,0.0,0.0,96,0.00,,,0.00,Wunderground v.1.15,2013-06-07 07:49:00,
2013-06-07 02:54:00,51.8,50.7,30.03,NNE,32,0.0,0.0,96,0.00,,,0.00,Wunderground v.1.15,2013-06-07 07:54:00,
2013-06-07 02:59:00,51.6,50.5,30.02,NNE,32,0.0,0.0,96,0.00,,,0.00,Wunderground v.1.15,2013-06-07 07:59:00,
2013-06-07 03:04:00,51.5,50.4,30.02,NNE,32,0.0,0.0,96,0.00,,,0.00,Wunderground v.1.15,2013-06-07 08:04:00,
2013-06-07 03:10:00,51.2,50.1,30.02,NNE,32,0.0,0.0,96,0.00,,,0.00,Wunderground v.1.15,2013-06-07 08:10:00,
2013-06-07 03:15:00,51.1,50.0,30.02,NNE,32,0.0,0.0,96,0.00,,,0.00,Wunderground v.1.15,2013-06-07 08:15:00,
2013-06-07 03:20:00,50.9,49.8,30.02,NNE,32,0.0,0.0,96,0.00,,,0.00,Wunderground v.1.15,2013-06-07 08:20:00,
2013-06-07 03:25:00,50.8,49.7,30.02,NNE,32,0.0,0.0,96,0.00,,,0.00,Wunderground v.1.15,2013-06-07 08:25:00,
2013-06-07 03:30:00,50.7,49.6,30.02,NNE,32,0.0,0.0,96,0.00,,,0.00,Wunderground v.1.15,2013-06-07 08:30:00,
2013-06-07 03:35:00,50.5,49.4,30.02,NNE,32,0.0,0.0,96,0.00,,,0.00,Wunderground v.1.15,2013-06-07 08:35:00,
2013-06-07 03:40:00,50.5,49.4,30.02,NNE,32,0.0,0.0,96,0.00,,,0.00,Wunderground v.1.15,2013-06-07 08:40:00,
2013-06-07 03:45:00,50.3,49.2,30.02,NNE,32,0.0,0.0,96,0.00,,,0.00,Wunderground v.1.15,2013-06-07 08:45:00,
2013-06-07 03:50:00,50.3,49.5,30.02,NNE,32,0.0,0.0,97,0.00,,,0.00,Wunderground v.1.15,2013-06-07 08:50:00,
2013-06-07 03:55:00,50.2,49.4,30.02,NNE,32,0.0,0.0,97,0.00,,,0.00,Wunderground v.1.15,2013-06-07 08:55:00,
2013-06-07 04:01:00,50.2,49.4,30.02,NNE,32,0.0,0.0,97,0.00,,,0.00,Wunderground v.1.15,2013-06-07 09:01:00,
2013-06-07 04:06:00,50.1,49.3,30.02,NNE,32,0.0,0.0,97,0.00,,,0.00,Wunderground v.1.15,2013-06-07 09:06:00,
2013-06-07 04:11:00,50.1,49.3,30.02,NNE,32,0.0,0.0,97,0.00,,,0.00,Wunderground v.1.15,2013-06-07 09:11:00,
2013-06-07 04:16:00,50.1,49.3,30.02,NNE,32,0.0,0.0,97,0.00,,,0.00,Wunderground v.1.15,2013-06-07 09:16:00,
2013-06-07 04:21:00,50.1,49.3,30.02,NNE,32,0.0,0.0,97,0.00,,,0.00,Wunderground v.1.15,2013-06-07 09:21:00,
2013-06-07 04:26:00,50.0,49.2,30.02,NNE,32,0.0,0.0,97,0.00,,,0.00,Wunderground v.1.15,2013-06-07 09:26:00,
2013-06-07 04:31:00,50.0,49.2,30.02,NNE,32,0.0,0.0,97,0.00,,,0.00,Wunderground v.1.15,2013-06-07 09:31:00,
2013-06-07 04:37:00,49.9,49.1,30.02,NNE,32,0.0,0.0,97,0.00,,,0.00,Wunderground v.1.15,2013-06-07 09:37:00,
2013-06-07 04:42:00,50.0,49.2,30.02,NNE,32,0.0,0.0,97,0.00,,,0.00,Wunderground v.1.15,2013-06-07 09:42:00,
2013-06-07 04:47:00,50.0,49.2,30.02,NNE,32,0.0,0.0,97,0.00,,,0.00,Wunderground v.1.15,2013-06-07 09:47:00,
2013-06-07 04:52:00,50.0,49.2,30.02,NNE,32,0.0,0.0,97,0.00,,,0.00,Wunderground v.1.15,2013-06-07 09:52:00,
2013-06-07 04:57:00,49.9,49.1,30.02,NNE,32,0.0,0.0,97,0.00,,,0.00,Wunderground v.1.15,2013-06-07 09:57:00,
2013-06-07 05:02:00,49.9,49.1,30.02,NNE,32,0.0,0.0,97,0.00,,,0.00,Wunderground v.1.15,2013-06-07 10:02:00,
2013-06-07 05:08:00,49.9,49.1,30.02,NNE,32,0.0,0.0,97,0.00,,,0.00,Wunderground v.1.15,2013-06-07 10:08:00,
2013-06-07 05:13:00,49.9,49.1,30.03,NNE,32,0.0,0.0,97,0.00,,,0.00,Wunderground v.1.15,2013-06-07 10:13:00,
2013-06-07 05:18:00,49.9,49.1,30.03,NNE,32,0.0,0.0,97,0.00,,,0.00,Wunderground v.1.15,2013-06-07 10:18:00,
2013-06-07 05:23:00,49.9,49.1,30.03,NNE,32,0.0,0.0,97,0.00,,,0.00,Wunderground v.1.15,2013-06-07 10:23:00,
2013-06-07 05:28:00,49.9,49.1,30.03,NNE,32,0.0,0.0,97,0.00,,,0.00,Wunderground v.1.15,2013-06-07 10:28:00,
2013-06-07 05:34:00,49.9,49.1,30.03,NNE,32,0.0,0.0,97,0.00,,,0.00,Wunderground v.1.15,2013-06-07 10:34:00,
2013-06-07 05:39:00,49.9,49.1,30.03,NNE,32,0.0,0.0,97,0.00,,,0.00,Wunderground v.1.15,2013-06-07 10:39:00,
2013-06-07 05:44:00,49.9,49.1,30.03,NNE,32,0.0,0.0,97,0.00,,,0.00,Wunderground v.1.15,2013-06-07 10:44:00,
2013-06-07 05:49:00,49.9,49.1,30.03,NNE,32,0.0,0.0,97,0.00,,,0.00,Wunderground v.1.15,2013-06-07 10:49:00,
2013-06-07 05:54:00,49.9,49.1,30.03,NNE,32,0.0,0.0,97,0.00,,,0.00,Wunderground v.1.15,2013-06-07 10:54:00,
2013-06-07 05:59:00,49.9,49.1,30.03,NNE,32,0.0,0.0,97,0.00,,,0.00,Wunderground v.1.15,2013-06-07 10:59:00,
2013-06-07 06:05:00,49.9,49.1,30.03,NNE,32,0.0,0.0,97,0.00,,,0.00,Wunderground v.1.15,2013-06-07 11:05:00,
2013-06-07 06:10:00,50.0,49.2,30.03,NNE,32,0.0,0.0,97,0.00,,,0.00,Wunderground v.1.15,2013-06-07 11:10:00,
2013-06-07 06:15:00,50.0,49.2,30.03,NNE,32,0.0,0.0,97,0.00,,,0.00,Wunderground v.1.15,2013-06-07 11:15:00,
2013-06-07 06:20:00,50.1,49.3,30.04,NNE,32,0.0,0.0,97,0.00,,,0.00,Wunderground v.1.15,2013-06-07 11:20:00,
2013-06-07 06:25:00,50.3,49.5,30.04,NNE,32,0.0,0.0,97,0.00,,,0.00,Wunderground v.1.15,2013-06-07 11:25:00,
2013-06-07 06:30:00,50.3,49.5,30.04,NNE,32,0.0,0.0,97,0.00,,,0.00,Wunderground v.1.15,2013-06-07 11:30:00,
2013-06-07 06:35:00,50.4,49.6,30.04,NNE,32,0.0,0.0,97,0.00,,,0.00,Wunderground v.1.15,2013-06-07 11:35:00,
2013-06-07 06:40:00,50.5,49.7,30.04,NNE,32,0.0,0.0,97,0.00,,,0.00,Wunderground v.1.15,2013-06-07 11:40:00,
2013-06-07 06:45:00,50.6,49.5,30.04,NNE,32,0.0,0.0,96,0.00,,,0.00,Wunderground v.1.15,2013-06-07 11:45:00,
2013-06-07 06:50:00,50.7,49.6,30.05,NNE,32,0.0,1.0,96,0.00,,,0.00,Wunderground v.1.15,2013-06-07 11:50:00,
2013-06-07 06:55:00,50.9,49.8,30.04,NNE,32,0.0,2.0,96,0.00,,,0.00,Wunderground v.1.15,2013-06-07 11:55:00,
2013-06-07 07:00:00,51.1,50.0,30.05,NNE,32,0.0,2.0,96,0.00,,,0.00,Wunderground v.1.15,2013-06-07 12:00:00,
2013-06-07 07:06:00,51.3,49.9,30.05,NNE,32,0.0,0.0,95,0.00,,,0.00,Wunderground v.1.15,2013-06-07 12:06:00,
2013-06-07 07:11:00,51.4,50.0,30.05,NNE,32,0.0,1.0,95,0.00,,,0.00,Wunderground v.1.15,2013-06-07 12:11:00,
2013-06-07 07:16:00,51.6,49.9,30.05,NNE,31,0.0,3.0,94,0.00,,,0.00,Wunderground v.1.15,2013-06-07 12:16:00,
2013-06-07 07:21:00,51.8,50.1,30.05,NNE,31,0.0,3.0,94,0.00,,,0.00,Wunderground v.1.15,2013-06-07 12:21:00,
2013-06-07 07:26:00,52.0,50.3,30.05,NNE,31,0.0,4.0,94,0.00,,,0.00,Wunderground v.1.15,2013-06-07 12:26:00,
2013-06-07 07:32:00,52.3,50.6,30.05,NNE,31,0.0,0.0,94,0.00,,,0.00,Wunderground v.1.15,2013-06-07 12:32:00,
2013-06-07 07:37:00,52.4,50.4,30.05,NNE,31,0.0,0.0,93,0.00,,,0.00,Wunderground v.1.15,2013-06-07 12:37:00,
2013-06-07 07:42:00,52.7,50.7,30.05,NNE,31,0.0,2.0,93,0.00,,,0.00,Wunderground v.1.15,2013-06-07 12:42:00,
2013-06-07 07:47:00,52.8,50.8,30.05,NNE,31,0.0,2.0,93,0.00,,,0.00,Wunderground v.1.15,2013-06-07 12:47:00,
2013-06-07 07:52:00,53.0,51.0,30.05,NNE,31,0.0,0.0,93,0.00,,,0.00,Wunderground v.1.15,2013-06-07 12:52:00,
2013-06-07 07:57:00,53.2,51.2,30.05,NNE,31,0.0,0.0,93,0.00,,,0.00,Wunderground v.1.15,2013-06-07 12:57:00,
2013-06-07 08:03:00,53.3,51.0,30.05,NNE,31,0.0,0.0,92,0.00,,,0.00,Wunderground v.1.15,2013-06-07 13:03:00,
2013-06-07 08:08:00,53.6,51.3,30.06,NNE,31,0.0,0.0,92,0.00,,,0.00,Wunderground v.1.15,2013-06-07 13:08:00,
2013-06-07 08:13:00,53.7,51.4,30.06,NNE,31,0.0,0.0,92,0.00,,,0.00,Wunderground v.1.15,2013-06-07 13:13:00,
2013-06-07 08:18:00,53.9,51.6,30.06,NNE,31,0.0,0.0,92,0.00,,,0.00,Wunderground v.1.15,2013-06-07 13:18:00,
2013-06-07 08:23:00,54.1,51.8,30.06,NNE,31,0.0,0.0,92,0.00,,,0.00,Wunderground v.1.15,2013-06-07 13:23:00,
2013-06-07 08:28:00,54.2,51.9,30.06,NNE,31,0.0,2.0,92,0.00,,,0.00,Wunderground v.1.15,2013-06-07 13:28:00,
2013-06-07 08:33:00,54.3,52.0,30.06,NNE,31,0.0,0.0,92,0.00,,,0.00,Wunderground v.1.15,2013-06-07 13:33:00,
2013-06-07 08:38:00,54.4,52.1,30.06,NNE,31,0.0,0.0,92,0.00,,,0.00,Wunderground v.1.15,2013-06-07 13:38:00,
2013-06-07 08:43:00,54.6,52.3,30.07,NNE,31,0.0,0.0,92,0.00,,,0.00,Wunderground v.1.15,2013-06-07 13:43:00,
2013-06-07 08:48:00,54.8,52.2,30.06,NNE,31,0.0,0.0,91,0.00,,,0.00,Wunderground v.1.15,2013-06-07 13:48:00,
2013-06-07 08:53:00,55.1,52.5,30.07,NNE,31,0.0,0.0,91,0.00,,,0.00,Wunderground v.1.15,2013-06-07 13:53:00,
2013-06-07 08:58:00,55.4,52.5,30.06,NE,41,0.0,0.0,90,0.00,,,0.00,Wunderground v.1.15,2013-06-07 13:58:00,
2013-06-07 09:03:00,55.4,52.5,30.06,NE,41,0.0,0.0,90,0.00,,,0.00,Wunderground v.1.15,2013-06-07 14:03:00,
2013-06-07 09:08:00,55.7,52.8,30.07,NE,41,0.0,0.0,90,0.00,,,0.00,Wunderground v.1.15,2013-06-07 14:08:00,
2013-06-07 09:14:00,55.9,53.0,30.07,NE,41,0.0,0.0,90,0.00,,,0.00,Wunderground v.1.15,2013-06-07 14:14:00,
2013-06-07 09:19:00,56.0,53.1,30.07,NE,41,0.0,0.0,90,0.00,,,0.00,Wunderground v.1.15,2013-06-07 14:19:00,
2013-06-07 09:24:00,56.0,52.8,30.07,NE,41,0.0,0.0,89,0.00,,,0.00,Wunderground v.1.15,2013-06-07 14:24:00,
2013-06-07 09:29:00,56.2,53.3,30.06,NE,41,0.0,0.0,90,0.00,,,0.00,Wunderground v.1.15,2013-06-07 14:29:00,
2013-06-07 09:34:00,56.2,53.3,30.07,NE,41,0.0,0.0,90,0.00,,,0.00,Wunderground v.1.15,2013-06-07 14:34:00,
2013-06-07 09:39:00,56.2,53.3,30.06,NE,41,0.0,0.0,90,0.00,,,0.00,Wunderground v.1.15,2013-06-07 14:39:00,
2013-06-07 09:44:00,56.2,53.0,30.06,NE,41,0.0,0.0,89,0.00,,,0.00,Wunderground v.1.15,2013-06-07 14:44:00,
2013-06-07 09:49:00,56.2,53.9,30.06,NE,41,0.0,0.0,92,0.00,,,0.00,Wunderground v.1.15,2013-06-07 14:49:00,
2013-06-07 09:54:00,56.3,53.4,30.06,NE,41,0.0,0.0,90,0.00,,,0.00,Wunderground v.1.15,2013-06-07 14:54:00,
2013-06-07 09:59:00,56.5,53.3,30.05,NE,37,0.0,0.0,89,0.00,,,0.00,Wunderground v.1.15,2013-06-07 14:59:00,
2013-06-07 10:04:00,56.8,53.6,30.05,NE,37,0.0,0.0,89,0.00,,,0.00,Wunderground v.1.15,2013-06-07 15:04:00,
2013-06-07 10:09:00,57.3,54.1,30.05,NE,37,0.0,3.0,89,0.00,,,0.00,Wunderground v.1.15,2013-06-07 15:09:00,
2013-06-07 10:15:00,57.5,54.0,30.05,NE,40,0.0,0.0,88,0.00,,,0.00,Wunderground v.1.15,2013-06-07 15:15:00,
2013-06-07 10:20:00,57.9,54.4,30.04,NE,40,0.0,0.0,88,0.00,,,0.00,Wunderground v.1.15,2013-06-07 15:20:00,
2013-06-07 10:25:00,58.1,54.2,30.04,North,9,2.0,4.0,87,0.00,,,0.00,Wunderground v.1.15,2013-06-07 15:25:00,
2013-06-07 10:30:00,58.3,53.8,30.04,North,11,0.0,4.0,85,0.00,,,0.00,Wunderground v.1.15,2013-06-07 15:30:00,
2013-06-07 10:35:00,58.3,53.8,30.05,North,10,3.0,3.0,85,0.00,,,0.00,Wunderground v.1.15,2013-06-07 15:35:00,
2013-06-07 10:40:00,58.6,54.1,30.05,North,5,2.0,7.0,85,0.00,,,0.00,Wunderground v.1.15,2013-06-07 15:40:00,
2013-06-07 10:45:00,58.9,54.4,30.05,North,5,0.0,1.0,85,0.00,,,0.00,Wunderground v.1.15,2013-06-07 15:45:00,
2013-06-07 10:50:00,59.0,54.5,30.04,NNW,336,0.0,4.0,85,0.00,,,0.00,Wunderground v.1.15,2013-06-07 15:50:00,
2013-06-07 10:55:00,59.1,54.6,30.04,North,349,0.0,3.0,85,0.00,,,0.00,Wunderground v.1.15,2013-06-07 15:55:00,
2013-06-07 11:00:00,59.3,54.8,30.04,North,349,2.0,3.0,85,0.00,,,0.00,Wunderground v.1.15,2013-06-07 16:00:00,
2013-06-07 11:05:00,59.5,54.7,30.04,North,9,3.0,6.0,84,0.00,,,0.00,Wunderground v.1.15,2013-06-07 16:05:00,
2013-06-07 11:11:00,59.3,54.5,30.04,NE,44,0.0,6.0,84,0.00,,,0.00,Wunderground v.1.15,2013-06-07 16:11:00,
2013-06-07 11:16:00,59.2,54.4,30.04,NE,44,3.0,3.0,84,0.00,,,0.00,Wunderground v.1.15,2013-06-07 16:16:00,
2013-06-07 11:21:00,59.2,54.4,30.04,NNE,15,0.0,4.0,84,0.00,,,0.00,Wunderground v.1.15,2013-06-07 16:21:00,
2013-06-07 11:26:00,59.3,54.8,30.04,NNE,19,3.0,3.0,85,0.00,,,0.00,Wunderground v.1.15,2013-06-07 16:26:00,
2013-06-07 11:31:00,59.4,54.9,30.04,NNE,29,0.0,6.0,85,0.00,,,0.00,Wunderground v.1.15,2013-06-07 16:31:00,
2013-06-07 11:36:00,59.5,55.0,30.04,NNE,29,2.0,2.0,85,0.00,,,0.00,Wunderground v.1.15,2013-06-07 16:36:00,
2013-06-07 11:41:00,59.7,55.5,30.03,NNE,29,0.0,2.0,86,0.00,,,0.00,Wunderground v.1.15,2013-06-07 16:41:00,
2013-06-07 11:47:00,59.8,55.0,30.03,NE,34,0.0,3.0,84,0.00,,,0.00,Wunderground v.1.15,2013-06-07 16:47:00,
2013-06-07 11:52:00,60.0,54.8,30.03,NE,34,0.0,4.0,83,0.00,,,0.00,Wunderground v.1.15,2013-06-07 16:52:00,
2013-06-07 11:57:00,60.7,55.5,30.03,NE,34,0.0,3.0,83,0.00,,,0.00,Wunderground v.1.15,2013-06-07 16:57:00,
2013-06-07 12:02:00,61.0,55.5,30.03,NNW,333,2.0,2.0,82,0.00,,,0.00,Wunderground v.1.15,2013-06-07 17:02:00,
2013-06-07 12:07:00,61.3,55.4,30.03,NNW,333,0.0,2.0,81,0.00,,,0.00,Wunderground v.1.15,2013-06-07 17:07:00,
2013-06-07 12:12:00,61.5,54.9,30.03,NNW,333,0.0,1.0,79,0.00,,,0.00,Wunderground v.1.15,2013-06-07 17:12:00,
2013-06-07 12:17:00,61.6,55.0,30.03,North,355,2.0,2.0,79,0.00,,,0.00,Wunderground v.1.15,2013-06-07 17:17:00,
2013-06-07 12:23:00,61.6,55.7,30.03,NE,56,2.0,3.0,81,0.00,,,0.00,Wunderground v.1.15,2013-06-07 17:23:00,
2013-06-07 12:28:00,61.7,55.5,30.03,NE,56,3.0,3.0,80,0.00,,,0.00,Wunderground v.1.15,2013-06-07 17:28:00,
2013-06-07 12:33:00,61.6,55.4,30.03,ENE,71,0.0,2.0,80,0.00,,,0.00,Wunderground v.1.15,2013-06-07 17:33:00,
2013-06-07 12:38:00,61.4,55.2,30.03,ENE,71,0.0,2.0,80,0.00,,,0.00,Wunderground v.1.15,2013-06-07 17:38:00,
2013-06-07 12:44:00,61.4,55.5,30.03,ENE,71,0.0,0.0,81,0.00,,,0.00,Wunderground v.1.15,2013-06-07 17:44:00,
2013-06-07 12:49:00,61.4,55.9,30.03,ENE,71,0.0,3.0,82,0.00,,,0.00,Wunderground v.1.15,2013-06-07 17:49:00,
2013-06-07 12:54:00,61.6,55.4,30.03,ENE,71,0.0,0.0,80,0.00,,,0.00,Wunderground v.1.15,2013-06-07 17:54:00,
2013-06-07 12:59:00,61.6,55.4,30.02,ENE,71,0.0,0.0,80,0.00,,,0.00,Wunderground v.1.15,2013-06-07 17:59:00,
2013-06-07 13:05:00,61.8,55.6,30.02,ENE,71,0.0,0.0,80,0.00,,,0.00,Wunderground v.1.15,2013-06-07 18:05:00,
2013-06-07 13:10:00,62.0,55.8,30.01,ENE,71,0.0,0.0,80,0.00,,,0.00,Wunderground v.1.15,2013-06-07 18:10:00,
2013-06-07 13:15:00,62.0,55.4,30.01,ENE,71,0.0,0.0,79,0.00,,,0.00,Wunderground v.1.15,2013-06-07 18:15:00,
2013-06-07 13:20:00,61.9,55.3,30.01,ENE,71,0.0,0.0,79,0.00,,,0.00,Wunderground v.1.15,2013-06-07 18:20:00,
2013-06-07 13:25:00,61.8,55.6,30.01,North,5,0.0,3.0,80,0.00,,,0.00,Wunderground v.1.15,2013-06-07 18:25:00,
2013-06-07 13:31:00,62.2,54.9,30.01,North,5,0.0,3.0,77,0.00,,,0.00,Wunderground v.1.15,2013-06-07 18:31:00,
2013-06-07 13:37:00,62.4,55.1,30.01,North,5,0.0,0.0,77,0.00,,,0.00,Wunderground v.1.15,2013-06-07 18:37:00,
2013-06-07 13:42:00,62.7,56.1,30.01,North,5,0.0,0.0,79,0.00,,,0.00,Wunderground v.1.15,2013-06-07 18:42:00,
2013-06-07 13:47:00,62.9,54.9,30.01,North,5,0.0,0.0,75,0.00,,,0.00,Wunderground v.1.15,2013-06-07 18:47:00,
2013-06-07 13:52:00,63.3,55.6,30.01,North,5,0.0,0.0,76,0.00,,,0.00,Wunderground v.1.15,2013-06-07 18:52:00,
2013-06-07 13:58:00,63.9,55.8,30.00,North,5,0.0,3.0,75,0.00,,,0.00,Wunderground v.1.15,2013-06-07 18:58:00,
2013-06-07 14:03:00,63.9,55.4,30.00,North,5,0.0,0.0,74,0.00,,,0.00,Wunderground v.1.15,2013-06-07 19:03:00,
2013-06-07 14:08:00,63.9,56.5,30.00,North,5,0.0,3.0,77,0.00,,,0.00,Wunderground v.1.15,2013-06-07 19:08:00,
2013-06-07 14:13:00,64.2,57.2,30.00,North,360,1.0,3.0,78,0.00,,,0.00,Wunderground v.1.15,2013-06-07 19:13:00,
2013-06-07 14:18:00,64.3,55.8,30.00,North,360,0.0,3.0,74,0.00,,,0.00,Wunderground v.1.15,2013-06-07 19:18:00,
2013-06-07 14:23:00,64.1,56.0,30.00,North,360,0.0,0.0,75,0.00,,,0.00,Wunderground v.1.15,2013-06-07 19:23:00,
2013-06-07 14:28:00,63.6,55.5,30.00,North,360,0.0,0.0,75,0.00,,,0.00,Wunderground v.1.15,2013-06-07 19:28:00,
2013-06-07 14:33:00,63.4,56.4,30.00,North,360,0.0,0.0,78,0.00,,,0.00,Wunderground v.1.15,2013-06-07 19:33:00,
2013-06-07 14:38:00,62.9,55.9,30.00,WNW,286,0.0,0.0,78,0.00,,,0.00,Wunderground v.1.15,2013-06-07 19:38:00,
2013-06-07 14:43:00,62.6,56.0,30.00,WNW,286,0.0,0.0,79,0.00,,,0.00,Wunderground v.1.15,2013-06-07 19:43:00,
2013-06-07 14:48:00,62.5,54.8,30.00,WNW,286,0.0,0.0,76,0.00,,,0.00,Wunderground v.1.15,2013-06-07 19:48:00,
2013-06-07 14:53:00,62.3,55.7,29.99,WNW,286,0.0,0.0,79,0.00,,,0.00,Wunderground v.1.15,2013-06-07 19:53:00,
2013-06-07 14:58:00,62.2,54.9,29.99,WNW,286,0.0,0.0,77,0.00,,,0.00,Wunderground v.1.15,2013-06-07 19:58:00,
2013-06-07 15:04:00,62.2,56.0,29.99,WNW,286,0.0,0.0,80,0.00,,,0.00,Wunderground v.1.15,2013-06-07 20:04:00,
2013-06-07 15:09:00,62.3,55.7,29.99,WNW,286,0.0,0.0,79,0.00,,,0.00,Wunderground v.1.15,2013-06-07 20:09:00,
2013-06-07 15:14:00,62.3,54.6,29.99,WNW,286,0.0,0.0,76,0.00,,,0.00,Wunderground v.1.15,2013-06-07 20:14:00,
2013-06-07 15:20:00,62.6,54.9,29.99,WNW,286,0.0,0.0,76,0.00,,,0.00,Wunderground v.1.15,2013-06-07 20:20:00,
2013-06-07 15:25:00,62.9,55.2,29.99,WNW,286,0.0,0.0,76,0.00,,,0.00,Wunderground v.1.15,2013-06-07 20:25:00,
2013-06-07 15:30:00,62.9,54.5,29.99,WNW,286,0.0,0.0,74,0.00,,,0.00,Wunderground v.1.15,2013-06-07 20:30:00,
2013-06-07 15:36:00,62.9,54.9,29.98,WNW,286,0.0,0.0,75,0.00,,,0.00,Wunderground v.1.15,2013-06-07 20:36:00,
2013-06-07 15:41:00,63.2,54.8,29.98,WNW,286,0.0,0.0,74,0.00,,,0.00,Wunderground v.1.15,2013-06-07 20:41:00,
2013-06-07 15:46:00,63.6,54.8,29.98,WNW,286,2.0,3.0,73,0.00,,,0.00,Wunderground v.1.15,2013-06-07 20:46:00,
2013-06-07 15:51:00,63.6,54.8,29.98,WSW,255,0.0,3.0,73,0.00,,,0.00,Wunderground v.1.15,2013-06-07 20:51:00,
2013-06-07 15:57:00,64.1,55.3,29.98,WSW,255,0.0,1.0,73,0.00,,,0.00,Wunderground v.1.15,2013-06-07 20:57:00,
2013-06-07 16:02:00,63.9,54.7,29.98,WSW,255,0.0,0.0,72,0.00,,,0.00,Wunderground v.1.15,2013-06-07 21:02:00,
2013-06-07 16:07:00,64.0,55.5,29.97,WSW,254,2.0,2.0,74,0.00,,,0.00,Wunderground v.1.15,2013-06-07 21:07:00,
2013-06-07 16:13:00,64.1,54.9,29.97,SW,216,3.0,4.0,72,0.00,,,0.00,Wunderground v.1.15,2013-06-07 21:13:00,
2013-06-07 16:19:00,63.9,54.3,29.97,South,171,5.0,6.0,71,0.00,,,0.00,Wunderground v.1.15,2013-06-07 21:19:00,
2013-06-07 16:24:00,63.9,54.3,29.97,South,171,0.0,2.0,71,0.00,,,0.00,Wunderground v.1.15,2013-06-07 21:24:00,
2013-06-07 16:29:00,64.0,53.6,29.97,South,188,1.0,5.0,69,0.00,,,0.00,Wunderground v.1.15,2013-06-07 21:29:00,
2013-06-07 16:34:00,64.1,54.9,29.97,SW,233,0.0,2.0,72,0.00,,,0.00,Wunderground v.1.15,2013-06-07 21:34:00,
2013-06-07 16:39:00,64.3,54.7,29.97,SW,233,0.0,2.0,71,0.00,,,0.00,Wunderground v.1.15,2013-06-07 21:39:00,
2013-06-07 16:45:00,64.5,55.7,29.97,SW,233,0.0,0.0,73,0.00,,,0.00,Wunderground v.1.15,2013-06-07 21:45:00,
2013-06-07 16:50:00,64.4,54.8,29.97,SSW,209,0.0,5.0,71,0.00,,,0.00,Wunderground v.1.15,2013-06-07 21:50:00,
2013-06-07 16:55:00,64.3,55.1,29.97,SSW,211,4.0,4.0,72,0.00,,,0.00,Wunderground v.1.15,2013-06-07 21:55:00,
2013-06-07 17:00:00,64.3,55.8,29.97,SSW,211,0.0,4.0,74,0.00,,,0.00,Wunderground v.1.15,2013-06-07 22:00:00,
2013-06-07 17:05:00,64.3,55.1,29.97,SSW,210,0.0,4.0,72,0.00,,,0.00,Wunderground v.1.15,2013-06-07 22:05:00,
2013-06-07 17:11:00,64.6,55.7,29.96,SSW,210,0.0,4.0,73,0.00,,,0.00,Wunderground v.1.15,2013-06-07 22:11:00,
2013-06-07 17:16:00,64.9,55.7,29.96,SSW,210,0.0,0.0,72,0.00,,,0.00,Wunderground v.1.15,2013-06-07 22:16:00,
2013-06-07 17:21:00,65.0,55.8,29.96,SSW,210,0.0,0.0,72,0.00,,,0.00,Wunderground v.1.15,2013-06-07 22:21:00,
2013-06-07 17:26:00,65.0,55.0,29.96,SSW,210,0.0,1.0,70,0.00,,,0.00,Wunderground v.1.15,2013-06-07 22:26:00,
2013-06-07 17:32:00,64.8,54.4,29.96,SSW,210,0.0,1.0,69,0.00,,,0.00,Wunderground v.1.15,2013-06-07 22:32:00,
2013-06-07 17:37:00,64.8,54.8,29.96,South,173,0.0,0.0,70,0.00,,,0.00,Wunderground v.1.15,2013-06-07 22:37:00,
2013-06-07 17:42:00,64.9,54.5,29.96,South,173,0.0,0.0,69,0.00,,,0.00,Wunderground v.1.15,2013-06-07 22:42:00,
2013-06-07 17:47:00,64.8,54.4,29.96,South,173,0.0,0.0,69,0.00,,,0.00,Wunderground v.1.15,2013-06-07 22:47:00,
2013-06-07 17:52:00,64.7,55.1,29.96,South,173,0.0,0.0,71,0.00,,,0.00,Wunderground v.1.15,2013-06-07 22:52:00,
2013-06-07 17:57:00,64.5,54.9,29.96,South,173,0.0,2.0,71,0.00,,,0.00,Wunderground v.1.15,2013-06-07 22:57:00,
2013-06-07 18:02:00,64.4,54.4,29.95,South,173,0.0,0.0,70,0.00,,,0.00,Wunderground v.1.15,2013-06-07 23:02:00,
2013-06-07 18:08:00,64.3,54.7,29.95,South,173,0.0,0.0,71,0.00,,,0.00,Wunderground v.1.15,2013-06-07 23:08:00,
2013-06-07 18:13:00,64.3,54.7,29.95,South,173,0.0,0.0,71,0.00,,,0.00,Wunderground v.1.15,2013-06-07 23:13:00,
2013-06-07 18:18:00,64.3,55.1,29.95,South,173,0.0,0.0,72,0.00,,,0.00,Wunderground v.1.15,2013-06-07 23:18:00,
2013-06-07 18:23:00,64.1,54.5,29.95,South,173,0.0,0.0,71,0.00,,,0.00,Wunderground v.1.15,2013-06-07 23:23:00,
2013-06-07 18:28:00,64.1,54.9,29.95,South,173,0.0,0.0,72,0.00,,,0.00,Wunderground v.1.15,2013-06-07 23:28:00,
2013-06-07 18:33:00,64.1,55.3,29.95,South,172,0.0,0.0,73,0.00,,,0.00,Wunderground v.1.15,2013-06-07 23:33:00,
2013-06-07 18:39:00,64.2,55.0,29.95,South,172,0.0,0.0,72,0.00,,,0.00,Wunderground v.1.15,2013-06-07 23:39:00,
2013-06-07 18:44:00,64.3,55.5,29.95,South,173,0.0,0.0,73,0.00,,,0.00,Wunderground v.1.15,2013-06-07 23:44:00,
2013-06-07 18:49:00,64.3,55.1,29.95,South,173,0.0,0.0,72,0.00,,,0.00,Wunderground v.1.15,2013-06-07 23:49:00,
2013-06-07 18:54:00,64.2,55.4,29.95,South,172,0.0,0.0,73,0.00,,,0.00,Wunderground v.1.15,2013-06-07 23:54:00,
2013-06-07 19:00:00,64.0,55.2,29.95,South,178,0.0,0.0,73,0.00,,,0.00,Wunderground v.1.15,2013-06-08 00:00:00,
2013-06-07 19:05:00,63.9,55.8,29.94,South,178,0.0,0.0,75,0.00,,,0.00,Wunderground v.1.15,2013-06-08 00:05:00,
2013-06-07 19:10:00,63.8,56.1,29.94,South,178,0.0,0.0,76,0.00,,,0.00,Wunderground v.1.15,2013-06-08 00:10:00,
2013-06-07 19:15:00,63.6,55.9,29.95,South,178,0.0,0.0,76,0.00,,,0.00,Wunderground v.1.15,2013-06-08 00:15:00,
2013-06-07 19:21:00,63.5,55.1,29.95,South,178,0.0,0.0,74,0.00,,,0.00,Wunderground v.1.15,2013-06-08 00:21:00,
2013-06-07 19:26:00,63.5,55.4,29.95,South,178,0.0,0.0,75,0.00,,,0.00,Wunderground v.1.15,2013-06-08 00:26:00,
2013-06-07 19:32:00,63.5,55.4,29.95,South,178,0.0,0.0,75,0.00,,,0.00,Wunderground v.1.15,2013-06-08 00:32:00,
2013-06-07 19:37:00,63.6,55.9,29.95,South,178,0.0,0.0,76,0.00,,,0.00,Wunderground v.1.15,2013-06-08 00:37:00,
2013-06-07 19:44:00,63.5,56.5,29.94,South,178,0.0,0.0,78,0.00,,,0.00,Wunderground v.1.15,2013-06-08 00:44:00,
2013-06-07 19:49:00,63.4,56.4,29.94,South,178,0.0,0.0,78,0.00,,,0.00,Wunderground v.1.15,2013-06-08 00:49:00,
2013-06-07 19:54:00,63.3,56.7,29.94,South,178,0.0,0.0,79,0.00,,,0.00,Wunderground v.1.15,2013-06-08 00:54:00,
2013-06-07 19:59:00,63.0,56.7,29.94,South,178,0.0,0.0,80,0.00,,,0.00,Wunderground v.1.15,2013-06-08 00:59:00,
2013-06-07 20:04:00,62.8,56.5,29.94,South,178,0.0,0.0,80,0.00,,,0.00,Wunderground v.1.15,2013-06-08 01:04:00,
2013-06-07 20:09:00,62.6,56.3,29.94,South,178,0.0,0.0,80,0.00,,,0.00,Wunderground v.1.15,2013-06-08 01:09:00,
2013-06-07 20:15:00,62.2,56.3,29.94,South,178,0.0,0.0,81,0.00,,,0.00,Wunderground v.1.15,2013-06-08 01:15:00,
2013-06-07 20:20:00,62.1,56.2,29.94,South,178,0.0,0.0,81,0.00,,,0.00,Wunderground v.1.15,2013-06-08 01:20:00,
2013-06-07 20:25:00,61.8,56.2,29.94,South,178,0.0,0.0,82,0.00,,,0.00,Wunderground v.1.15,2013-06-08 01:25:00,
2013-06-07 20:31:00,61.6,56.0,29.94,South,178,0.0,0.0,82,0.00,,,0.00,Wunderground v.1.15,2013-06-08 01:31:00,
2013-06-07 20:36:00,61.4,56.2,29.94,South,178,0.0,0.0,83,0.00,,,0.00,Wunderground v.1.15,2013-06-08 01:36:00,
2013-06-07 20:41:00,61.0,55.8,29.94,South,178,0.0,0.0,83,0.00,,,0.00,Wunderground v.1.15,2013-06-08 01:41:00,
2013-06-07 20:47:00,60.6,55.7,29.94,South,178,0.0,0.0,84,0.00,,,0.00,Wunderground v.1.15,2013-06-08 01:47:00,
2013-06-07 20:53:00,60.3,55.8,29.94,South,178,0.0,0.0,85,0.00,,,0.00,Wunderground v.1.15,2013-06-08 01:53:00,
2013-06-07 20:58:00,59.9,55.4,29.93,South,178,0.0,0.0,85,0.00,,,0.00,Wunderground v.1.15,2013-06-08 01:58:00,
2013-06-07 21:04:00,59.5,55.3,29.93,South,178,0.0,0.0,86,0.00,,,0.00,Wunderground v.1.15,2013-06-08 02:04:00,
2013-06-07 21:09:00,59.0,55.1,29.93,South,178,0.0,0.0,87,0.00,,,0.00,Wunderground v.1.15,2013-06-08 02:09:00,
2013-06-07 21:14:00,58.6,54.7,29.93,South,178,0.0,0.0,87,0.00,,,0.00,Wunderground v.1.15,2013-06-08 02:14:00,
2013-06-07 21:19:00,58.2,54.7,29.93,South,178,0.0,0.0,88,0.00,,,0.00,Wunderground v.1.15,2013-06-08 02:19:00,
2013-06-07 21:25:00,57.6,54.4,29.93,South,178,0.0,0.0,89,0.00,,,0.00,Wunderground v.1.15,2013-06-08 02:25:00,
2013-06-07 21:31:00,57.3,54.1,29.93,South,178,0.0,0.0,89,0.00,,,0.00,Wunderground v.1.15,2013-06-08 02:31:00,
2013-06-07 21:36:00,56.9,54.0,29.94,South,178,0.0,0.0,90,0.00,,,0.00,Wunderground v.1.15,2013-06-08 02:36:00,
2013-06-07 21:41:00,56.6,53.7,29.93,South,178,0.0,0.0,90,0.00,,,0.00,Wunderground v.1.15,2013-06-08 02:41:00,
2013-06-07 21:46:00,56.3,53.4,29.93,South,178,0.0,0.0,90,0.00,,,0.00,Wunderground v.1.15,2013-06-08 02:46:00,
2013-06-07 21:51:00,56.0,53.4,29.94,South,178,0.0,0.0,91,0.00,,,0.00,Wunderground v.1.15,2013-06-08 02:51:00,
2013-06-07 21:57:00,55.7,53.4,29.94,South,178,0.0,0.0,92,0.00,,,0.00,Wunderground v.1.15,2013-06-08 02:57:00,
2013-06-07 22:02:00,55.5,53.2,29.94,South,178,0.0,0.0,92,0.00,,,0.00,Wunderground v.1.15,2013-06-08 03:02:00,
2013-06-07 22:08:00,55.2,52.9,29.94,South,178,0.0,0.0,92,0.00,,,0.00,Wunderground v.1.15,2013-06-08 03:08:00,
2013-06-07 22:13:00,55.0,53.0,29.94,South,178,0.0,0.0,93,0.00,,,0.00,Wunderground v.1.15,2013-06-08 03:13:00,
2013-06-07 22:18:00,54.8,52.8,29.94,South,178,0.0,0.0,93,0.00,,,0.00,Wunderground v.1.15,2013-06-08 03:18:00,
2013-06-07 22:23:00,54.6,52.9,29.94,South,178,0.0,0.0,94,0.00,,,0.00,Wunderground v.1.15,2013-06-08 03:23:00,
2013-06-07 22:28:00,54.4,52.7,29.94,South,178,0.0,0.0,94,0.00,,,0.00,Wunderground v.1.15,2013-06-08 03:28:00,
2013-06-07 22:33:00,54.2,52.5,29.94,South,178,0.0,0.0,94,0.00,,,0.00,Wunderground v.1.15,2013-06-08 03:33:00,
2013-06-07 22:39:00,54.0,52.3,29.93,South,178,0.0,0.0,94,0.00,,,0.00,Wunderground v.1.15,2013-06-08 03:39:00,
2013-06-07 22:44:00,53.9,52.2,29.93,South,178,0.0,0.0,94,0.00,,,0.00,Wunderground v.1.15,2013-06-08 03:44:00,
2013-06-07 22:49:00,53.7,52.0,29.93,South,178,0.0,0.0,94,0.00,,,0.00,Wunderground v.1.15,2013-06-08 03:49:00,
2013-06-07 22:54:00,53.6,51.9,29.93,South,178,0.0,0.0,94,0.00,,,0.00,Wunderground v.1.15,2013-06-08 03:54:00,
2013-06-07 22:59:00,53.5,52.1,29.93,South,178,0.0,0.0,95,0.00,,,0.00,Wunderground v.1.15,2013-06-08 03:59:00,
2013-06-07 23:01:00,53.5,52.1,29.93,South,178,0.0,0.0,95,0.00,,,0.00,Wunderground v.1.15,2013-06-08 04:01:00,
2013-06-07 23:02:00,53.5,52.1,29.93,South,178,0.0,0.0,95,0.00,,,0.00,Wunderground v.1.15,2013-06-08 04:02:00,
2013-06-07 23:03:00,53.5,52.1,29.93,South,178,0.0,0.0,95,0.00,,,0.00,Wunderground v.1.15,2013-06-08 04:03:00,
2013-06-07 23:08:00,53.4,52.0,29.93,South,178,0.0,0.0,95,0.00,,,0.00,Wunderground v.1.15,2013-06-08 04:08:00,
2013-06-07 23:13:00,53.3,51.9,29.93,South,178,0.0,0.0,95,0.00,,,0.00,Wunderground v.1.15,2013-06-08 04:13:00,
2013-06-07 23:18:00,53.2,51.8,29.93,South,178,0.0,0.0,95,0.00,,,0.00,Wunderground v.1.15,2013-06-08 04:18:00,
2013-06-07 23:23:00,53.2,51.8,29.92,South,178,0.0,0.0,95,0.00,,,0.00,Wunderground v.1.15,2013-06-08 04:23:00,
2013-06-07 23:28:00,53.1,52.0,29.92,South,178,0.0,0.0,96,0.00,,,0.00,Wunderground v.1.15,2013-06-08 04:28:00,
2013-06-07 23:33:00,53.1,52.0,29.92,South,178,0.0,0.0,96,0.00,,,0.00,Wunderground v.1.15,2013-06-08 04:33:00,
2013-06-07 23:38:00,53.0,51.9,29.92,South,178,0.0,0.0,96,0.00,,,0.00,Wunderground v.1.15,2013-06-08 04:38:00,
2013-06-07 23:44:00,53.0,51.9,29.92,South,178,0.0,0.0,96,0.00,,,0.00,Wunderground v.1.15,2013-06-08 04:44:00,
2013-06-07 23:49:00,52.8,51.7,29.92,South,178,0.0,0.0,96,0.00,,,0.00,Wunderground v.1.15,2013-06-08 04:49:00,
2013-06-07 23:54:00,52.8,51.7,29.92,South,178,0.0,0.0,96,0.00,,,0.00,Wunderground v.1.15,2013-06-08 04:54:00,
2013-06-07 23:59:00,52.7,51.6,29.92,South,178,0.0,0.0,96,0.00,,,0.00,Wunderground v.1.15,2013-06-08 04:59:00,